Regional Weather Roundup
Issued by NWS

Home | Current Version | Previous Version | Text Only | Print | Product List | Glossary Off
Versions: 1 2 3 4 5 6 7 8 9 10 11 12 13 14 15 16 17 18 19 20 21 22 23 24 25 26 27 28 29 30 31 32 33 34 35 36 37 38 39 40 41 42 43 44 45 46 47 48 49 50

000
ASUS43 KIND 230409
RWRIN

WEATHER ROUNDUP FOR INDIANA
NATIONAL WEATHER SERVICE INDIANAPOLIS IN
1200 AM EDT TUE MAY 23 2017

NOTE: "FAIR" INDICATES FEW OR NO CLOUDS BELOW 12,000 FEET WITH NO
SIGNIFICANT WEATHER AND/OR OBSTRUCTIONS TO VISIBILITY.

* - STATION DOES NOT REPORT WEATHER SUCH AS PRECIPITATION OR FOG.

+ - STATION NOT QUALITY CONTROLLED BY THE NATIONAL WEATHER SERVICE.
    USE DATA WITH CAUTION...ESPECIALLY DEWPOINT AND RELATIVE
    HUMIDITY OBSERVATIONS.

INZ001>003-010>013-019-020-230500-
NORTHWEST INDIANA

CITY           SKY/WX    TMP DP  RH WIND       PRES   REMARKS
GARY /AIRPORT/ CLOUDY    63  49  60 SW9       29.93S
KNOX *+        CLOUDY    61  41  48 SW5       29.94F
LA PORTE +     CLOUDY    62  51  67 SW7       29.94S
MICHIGAN CITY+ PTCLDY    61  50  67 SW6       29.93F
MONTICELLO +   CLOUDY    63  48  59 S3        29.95F
RENSSELAER +   DRIZZLE   61  54  77 S5        29.96S
VALPARAISO     CLOUDY    63  52  67 SW9       29.93F

$$

LMZ046-743>745-230500-
SOUTHERN LAKE MICHIGAN

STATION/POSITION TIME  TEMP    WIND        PRES    WAVE
                       AIR SEA DIR/SP/G            HT
                 (UTC) (F)     (DEG/KT/KT) (MB)    (FT)
BURNS HARBOR     0340   63     230/  7/ 11 1013.9F
MICHIGAN CITY    0340   62     220/ 13/ 15   N/A
5NW MICH CITY    0400   55 53  260/  6/  8   N/A     2

$$

INZ004-005-014>016-021>024-230500-
NORTH CENTRAL INDIANA

CITY           SKY/WX    TMP DP  RH WIND       PRES   REMARKS
GOSHEN         MOCLDY    62  48  60 S9        29.94S
LOGANSPORT +   CLOUDY    59  52  77 S5        29.97F
PERU/GRISSOM   CLOUDY    59  54  83 S6        29.96R
ROCHESTER +    CLOUDY    64  50  59 S5        29.96S
SOUTH BEND     MOCLDY    62  49  62 SW7       29.94S
WARSAW +       CLOUDY    61  46  59 CALM      29.95S

$$

INZ006>009-017-018-025>027-230500-
NORTHEAST INDIANA

CITY           SKY/WX    TMP DP  RH WIND       PRES   REMARKS
ANGOLA *+      CLEAR     59  48  67 S5        29.95S
AUBURN +       PTCLDY    55  48  76 CALM      29.97S
FORT WAYNE     CLOUDY    59  48  67 S9        29.97F
HUNTINGTON +   CLOUDY    56  53  90 CALM      29.97S
KENDALLVILLE + CLEAR     58  49  72 S6        29.96S

$$

INZ028-029-035-036-043>045-051>053-230500-
WEST CENTRAL INDIANA

CITY           SKY/WX    TMP DP  RH WIND       PRES   REMARKS
CRAWFORDSVL +  CLOUDY    53  53 100 CALM      29.98F
GREENCASTLE +  CLOUDY    54  50  87 CALM      29.99F
LAFAYETTE      CLOUDY    60  53  77 CALM      29.95F
TERRE HAUTE    CLOUDY    59  52  77 SE3       29.97F

$$

INZ030>032-037>040-046>048-054>057-064-065-230500-
CENTRAL INDIANA

CITY           SKY/WX    TMP DP  RH WIND       PRES   REMARKS
CP ATTERBURY + CLOUDY    54  50  87 CALM      29.99F
FISHERS *+     CLOUDY    57  52  82 S3        29.99S
FRANKFORT +    CLOUDY    61  53  76 S3        30.00S
GREENWOOD *+   PTCLDY    60  48  64 S5        30.00S
INDIANAPOLIS   CLOUDY    60  48  64 S7        29.98F
-EAGLE CREEK   CLOUDY    61  48  62 S3        29.98F
KOKOMO +       PTCLDY    60  52  74 S6        29.98S
MARION +       CLOUDY    57  48  72 S5        29.99S
MT COMFORT *+  PTCLDY    61  48  63 S3        30.00S
SHELBYVILLE    CLOUDY    62  48  60 S7        29.99F
ZIONSVILLE +   CLOUDY    55  51  87 CALM      29.99S

$$

INZ033-034-041-042-049-050-058-059-230500-
EAST CENTRAL INDIANA

CITY           SKY/WX    TMP DP  RH WIND       PRES   REMARKS
MUNCIE         CLOUDY    62  46  55 S3        29.99S
RICHMOND +     CLOUDY    54  50  87 S6        30.01F

$$

INZ060-061-067>069-081>083-085>088-230500-
SOUTHWEST INDIANA

CITY           SKY/WX    TMP DP  RH WIND       PRES   REMARKS
EVANSVILLE     CLOUDY    63  53  70 CALM      29.97F
HUNTINGBURG *+ CLOUDY    57  55  93 NE3       29.98F
WASHINGTON +   CLOUDY    61  52  72 S5        29.97F

$$

INZ062-063-066-070>080-084-089>092-230500-
SOUTH CENTRAL AND SOUTHEAST INDIANA

CITY           SKY/WX    TMP DP  RH WIND       PRES   REMARKS
BEDFORD +      CLOUDY    55  48  76 CALM      29.98F
BLOOMINGTON    CLOUDY    58  49  72 CALM      29.98F
MADISON *+     CLOUDY    54  52  94 CALM      30.02F
NORTH VERNON + PTCLDY    55  50  82 CALM      30.00F
SEYMOUR +      CLOUDY    59  52  77 CALM      29.99F

$$





USA.gov is the U.S. government's official web portal to all federal, state and local government web resources and services.